Torna al catalogo

STARLINK-6341

AttivoComunicazioniVLEO
NORAD 56786·PAYLOAD·🇺🇸 United States

Lanciato May 31, 2023 da Vandenberg Space Force Base

Loading…

Prossimi Passaggi (prossime 24 ore)

TLE

AggiornatoSource: CelesTrak SupGP

Epoca: Sep 14, 2026, 22:25 UTC

1 56786C 23078V   26257.93451389  .00565970  00000+0  46148-1 0  2578
2 56786  70.0009 207.3537 0003259 268.4094 292.7325 14.99102507    18

Traccia STARLINK-6341 in tempo reale con AllMySat

Download on the App Store